[[{"header":{"parameterUnit":"m.s-1","parameterCategory":1,"la1":30.2992,"la2":30.254,"lo1":-89.0895,"lo2":-89.0443,"dy":0.0025,"dx":0.0025,"nx":19,"ny":19,"refTime":"2026-04-28T21:00:00:Z","depth":0,"parameterNumber":2,"parameterNumberName":"U-component_of_WINDS"},"data":[0,0,0,3.68,3.6804,3.694,3.6941,3.7142,3.7144,0,0,0,0,0,0,0,0,0,0,0,3.6776,3.6778,3.68,3.6804,3.694,3.6941,3.7141,3.7144,0,0,0,0,0,0,0,0,0,0,0,3.6775,3.6778,3.678,3.6805,3.694,3.6941,3.7141,3.7028,0,0,0,0,0,0,0,0,0,0,3.6891,3.6885,3.6777,3.678,3.6805,3.694,3.6941,3.7023,3.7035,3.7091,0,3.7145,0,3.7147,3.7159,3.7159,0,0,0,3.6792,3.6874,3.6896,3.678,3.6807,3.694,3.6875,3.7029,3.7044,3.7108,3.7147,3.7154,3.7151,3.716,3.7161,3.752,3.7522,0,0,3.6785,3.681,3.6886,3.6907,3.6887,3.6871,3.688,3.7038,3.7082,3.7148,3.7158,3.7154,3.7162,3.7163,3.7518,3.7521,0,0,0,3.6771,3.6805,3.6822,3.6899,3.6922,3.6875,3.6885,3.7075,3.7079,3.716,3.7156,3.7163,3.7166,3.7516,3.7519,3.7654,0,0,0,3.6766,3.6797,3.682,3.6837,3.6919,3.7,3.692,3.7068,3.7085,3.7155,3.7163,3.7168,3.7513,3.7517,3.7645,3.7714,0,0,0,3.6762,3.6796,3.6821,3.6838,3.6897,3.6997,3.7009,3.7071,3.7083,3.716,3.7169,3.7511,3.7517,3.7637,3.7701,3.7816,0,0,0,3.6765,3.6941,3.6824,3.7018,3.6896,3.7079,3.7008,3.7143,3.7225,3.7164,3.7513,3.7519,3.7634,3.7693,3.7808,3.7918,3.7966,0,0,3.7001,3.697,3.7082,3.6982,3.7192,3.7056,3.7286,3.7337,3.7322,3.7455,3.7463,3.7648,3.77,3.7814,3.8225,3.8264,0,0,0,3.7165,3.7246,3.7296,3.7375,3.7417,3.7459,3.7471,3.749,3.7601,3.7395,3.7719,3.7749,3.7815,3.7867,3.79,3.7955,3.7543,3.7543,3.7542,3.7537,3.7506,3.7689,3.7674,3.7751,3.7761,3.782,3.7846,3.7794,3.7871,3.7911,3.8164,3.8226,3.825,3.8308,3.7965,3.7966,3.7966,3.7967,3.788,3.799,3.7913,3.8064,3.803,3.8155,3.8171,3.8129,3.8241,3.8132,3.8188,3.8073,3.8293,3.8342,3.7977,3.7975,3.7974,3.7973,3.7972,3.8121,3.8168,3.8186,3.8294,3.8381,3.8359,3.8469,3.8434,3.8402,3.8458,3.8496,3.8493,3.8487,3.8478,3.8479,3.8479,3.848,3.8481,3.8481,3.8365,3.8381,3.8478,3.8536,3.858,3.8634,3.8643,3.8686,3.8724,3.8689,3.8689,3.863,3.832,3.8243,3.8495,3.8493,3.8491,3.849,3.8489,3.8727,3.8639,3.879,3.8834,3.8897,3.8985,3.8937,3.9026,3.9056,3.9111,3.9038,3.8814,3.8781,3.8754,3.8691,3.9043,3.9043,3.9044,3.9044,3.8932,3.891,3.9055,3.9128,3.9195,3.9166,3.9336,3.9344,3.9339,3.9355,3.9298,3.921,3.9185,3.9167,3.9131,3.9072,3.9513,3.9514,3.9514,3.9153,3.9136,3.9289,3.9281,3.9327,3.9367,3.9526,3.9612,3.9587,3.9533,3.9367,3.9347,3.9205,3.916,3.9105,3.9051,3.8941,0,0]},{"header":{"parameterUnit":"m.s-1","parameterCategory":1,"la1":30.2992,"la2":30.254,"lo1":-89.0895,"lo2":-89.0443,"dy":0.0025,"dx":0.0025,"nx":19,"ny":19,"refTime":"2026-04-28T21:00:00:Z","depth":0,"parameterNumber":3,"parameterNumberName":"V-component_of_WINDS"},"data":[0,0,0,4.1414,4.1418,4.1616,4.1617,4.1862,4.1864,0,0,0,0,0,0,0,0,0,0,0,4.1356,4.1357,4.1414,4.1419,4.1616,4.1617,4.1861,4.1864,0,0,0,0,0,0,0,0,0,0,0,4.1355,4.1357,4.1359,4.1419,4.1616,4.1617,4.1861,4.1714,0,0,0,0,0,0,0,0,0,0,4.1523,4.147,4.1356,4.1359,4.1421,4.1615,4.1617,4.1707,4.1723,4.1771,0,4.1817,0,4.1845,4.188,4.1881,0,0,0,4.1418,4.1457,4.151,4.1359,4.1422,4.1615,4.1526,4.1716,4.1734,4.1792,4.1821,4.183,4.1849,4.1882,4.1883,4.2171,4.2172,0,0,4.1407,4.139,4.1497,4.1522,4.1496,4.152,4.1533,4.1727,4.1755,4.1822,4.1836,4.1853,4.1884,4.1885,4.217,4.2171,0,0,0,4.1376,4.1383,4.1432,4.1512,4.1548,4.1526,4.154,4.1747,4.1764,4.1838,4.1856,4.1885,4.1888,4.2168,4.217,4.2224,0,0,0,4.137,4.1365,4.1427,4.1419,4.1545,4.1651,4.1556,4.1751,4.1773,4.1854,4.1885,4.189,4.2167,4.2169,4.2219,4.2251,0,0,0,4.1343,4.1362,4.1391,4.1417,4.1502,4.1648,4.1677,4.1756,4.1784,4.1881,4.1891,4.2166,4.2169,4.2215,4.2245,4.2322,0,0,0,4.1308,4.1435,4.1391,4.1539,4.15,4.1681,4.1676,4.181,4.19,4.1886,4.2167,4.217,4.2214,4.224,4.2317,4.2383,4.241,0,0,4.1459,4.1453,4.1541,4.1507,4.1692,4.1652,4.1843,4.194,4.1962,4.2099,4.2106,4.2221,4.2244,4.2321,4.2565,4.2586,0,0,0,4.1582,4.1645,4.1698,4.1784,4.1863,4.1931,4.2001,4.2036,4.2153,4.2031,4.227,4.2284,4.233,4.2362,4.238,4.2419,4.2185,4.2184,4.2184,4.1772,4.1795,4.1942,4.1989,4.2072,4.2142,4.221,4.2268,4.2267,4.2323,4.2364,4.2509,4.2547,4.256,4.2601,4.2401,4.2401,4.2401,4.2401,4.1993,4.2086,4.2081,4.2221,4.2243,4.236,4.243,4.2424,4.2533,4.2481,4.2522,4.2462,4.2583,4.2619,4.2406,4.2405,4.2404,4.2404,4.2404,4.212,4.2168,4.221,4.2336,4.2429,4.247,4.2575,4.2592,4.2607,4.2648,4.2691,4.269,4.269,4.2667,4.2668,4.2668,4.2669,4.2669,4.2669,4.2234,4.228,4.2368,4.2461,4.2517,4.2593,4.2662,4.2716,4.278,4.2783,4.2783,4.2774,4.2591,4.2544,4.2677,4.2676,4.2675,4.2674,4.2674,4.2449,4.2403,4.254,4.2596,4.2704,4.2794,4.2813,4.2922,4.2969,4.302,4.3002,4.2864,4.2857,4.2843,4.2804,4.2998,4.2998,4.2998,4.2998,4.2555,4.2554,4.2697,4.2785,4.2874,4.2904,4.3054,4.3107,4.3154,4.3183,4.3157,4.3107,4.3092,4.3095,4.3075,4.3039,4.3288,4.3288,4.3288,4.2688,4.2696,4.2822,4.2871,4.2956,4.3027,4.3167,4.3265,4.3308,4.33,4.3206,4.3194,4.3113,4.3086,4.3076,4.3046,4.298,0,0]}]]